{"data":{"norad_id":58119,"epoch":"2026-05-25T03:45:39.871008Z","epoch_age_seconds":58546,"freshness":"FRESH","line1":"1 58119U 23162B   26145.15671147  .00001680  00000+0  70562-4 0  9996","line2":"2 58119  43.0071  60.4757 0001529 245.2866 114.7827 15.27575010144002","mean_motion":15.2757501,"eccentricity":0.0001529,"inclination_deg":43.0071,"raan_deg":60.4757,"arg_perigee_deg":245.2866,"mean_anomaly_deg":114.7827,"bstar":7.0562e-5,"rev_number":14400,"period_min":94.267056646861,"perigee_km":482.01496029677,"apogee_km":484.11311557417,"semimajor_km":6861.2010379355,"source":"CELESTRAK","updated_at":"2026-05-25T13:38:18.530767Z"}}